| time (UTC) | temp F | wind direction | speed knots | gust knots | rain 1hr in | rain 24hr in | rain mn in | humidity % | barometer mb |
| 20260510211312 | 63 | 289 | 1.7 | 4.3 | 0.00 | 0.00 | 0.00 | 63 | 1021.2 |
| 20260510211240 | 63 | 289 | 1.7 | 4.3 | 0.00 | 0.00 | 0.00 | 63 | 1021.2 |
| 20260510210808 | 62 | 313 | 0.9 | 3.5 | 0.00 | 0.00 | 0.00 | 65 | 1020.9 |
| 20260510210235 | 62 | 237 | 1.7 | 3.5 | 0.00 | 0.00 | 0.00 | 66 | 1020.9 |
| 20260510205802 | 61 | 275 | 1.7 | 2.6 | 0.00 | 0.00 | 0.00 | 69 | 1020.9 |
| 20260510205730 | 61 | 275 | 1.7 | 2.6 | 0.00 | 0.00 | 0.00 | 69 | 1020.9 |
| 20260510205317 | 60 | 46 | 0.9 | 2.6 | 0.00 | 0.00 | 0.00 | 70 | 1020.9 |
| 20260510205245 | 60 | 46 | 0.9 | 2.6 | 0.00 | 0.00 | 0.00 | 70 | 1020.9 |
| 20260510204726 | 60 | 299 | 0.0 | 2.6 | 0.00 | 0.00 | 0.00 | 70 | 1020.9 |
| 20260510204254 | 60 | 318 | 0.9 | 3.5 | 0.00 | 0.00 | 0.00 | 70 | 1020.9 |
| 20260510204222 | 60 | 318 | 0.9 | 3.5 | 0.00 | 0.00 | 0.00 | 70 | 1020.9 |
| 20260510203810 | 60 | 288 | 0.9 | 3.5 | 0.00 | 0.00 | 0.00 | 69 | 1020.8 |
| 20260510203738 | 60 | 288 | 0.9 | 3.5 | 0.00 | 0.00 | 0.00 | 69 | 1020.8 |
| 20260510203306 | 60 | 266 | 0.9 | 3.5 | 0.00 | 0.00 | 0.00 | 68 | 1020.8 |
| 20260510202721 | 61 | 304 | 1.7 | 3.5 | 0.00 | 0.00 | 0.00 | 67 | 1020.8 |
| 20260510202228 | 61 | 300 | 1.7 | 3.5 | 0.00 | 0.00 | 0.00 | 68 | 1020.7 |
| 20260510201756 | 61 | 360 | 0.9 | 2.6 | 0.00 | 0.00 | 0.00 | 68 | 1020.7 |
| 20260510201252 | 61 | 334 | 0.9 | 3.5 | 0.00 | 0.00 | 0.00 | 68 | 1020.7 |
| 20260510200729 | 60 | 227 | 0.0 | 4.3 | 0.00 | 0.00 | 0.00 | 69 | 1020.8 |
| 20260510200237 | 60 | 295 | 0.9 | 7.0 | 0.00 | 0.00 | 0.00 | 70 | 1020.8 |
| 20260510195724 | 60 | 37 | 1.7 | 7.0 | 0.00 | 0.00 | 0.00 | 71 | 1020.6 |
| 20260510195252 | 59 | 216 | 0.9 | 4.3 | 0.00 | 0.00 | 0.00 | 71 | 1020.5 |
| 20260510194729 | 59 | 231 | 1.7 | 4.3 | 0.00 | 0.00 | 0.00 | 72 | 1020.5 |
| 20260510194237 | 59 | 183 | 1.7 | 4.3 | 0.00 | 0.00 | 0.00 | 74 | 1020.5 |
| 20260510193725 | 58 | 236 | 0.9 | 3.5 | 0.00 | 0.00 | 0.00 | 75 | 1020.5 |
| 20260510193312 | 58 | 167 | 1.7 | 4.3 | 0.00 | 0.00 | 0.00 | 75 | 1020.4 |
| 20260510192732 | 58 | 218 | 1.7 | 4.3 | 0.00 | 0.00 | 0.00 | 75 | 1020.5 |
| 20260510192240 | 58 | 69 | 0.0 | 3.5 | 0.00 | 0.00 | 0.00 | 77 | 1020.4 |
| 20260510191808 | 58 | 105 | 0.9 | 3.5 | 0.00 | 0.00 | 0.00 | 78 | 1020.6 |
| 20260510191224 | 58 | 276 | 0.0 | 4.3 | 0.00 | 0.00 | 0.00 | 78 | 1020.6 |
| 20260510190732 | 58 | 216 | 0.9 | 4.3 | 0.00 | 0.00 | 0.00 | 78 | 1020.5 |
| 20260510190300 | 58 | 211 | 0.9 | 4.3 | 0.00 | 0.00 | 0.00 | 78 | 1020.3 |
| 20260510185735 | 58 | 230 | 0.9 | 4.3 | 0.00 | 0.00 | 0.00 | 78 | 1020.4 |
| 20260510185223 | 58 | 74 | 0.9 | 2.6 | 0.00 | 0.00 | 0.00 | 79 | 1020.5 |
| 20260510184731 | 57 | 210 | 0.9 | 2.6 | 0.00 | 0.00 | 0.00 | 79 | 1020.5 |
| 20260510184259 | 57 | 112 | 0.9 | 3.5 | 0.00 | 0.00 | 0.00 | 79 | 1020.4 |
| 20260510184227 | 57 | 112 | 0.9 | 3.5 | 0.00 | 0.00 | 0.00 | 79 | 1020.4 |
| 20260510183755 | 57 | 339 | 0.9 | 1.7 | 0.00 | 0.00 | 0.00 | 79 | 1020.4 |
| 20260510183723 | 57 | 339 | 0.9 | 1.7 | 0.00 | 0.00 | 0.00 | 79 | 1020.4 |
| 20260510183311 | 57 | 288 | 0.0 | 3.5 | 0.00 | 0.00 | 0.00 | 81 | 1020.3 |
| 20260510182726 | 57 | 190 | 1.7 | 6.1 | 0.00 | 0.00 | 0.00 | 81 | 1020.1 |
| 20260510182234 | 57 | 269 | 1.7 | 6.1 | 0.00 | 0.00 | 0.00 | 81 | 1020.1 |
| 20260510181801 | 57 | 113 | 0.9 | 3.5 | 0.00 | 0.00 | 0.00 | 81 | 1020.0 |
| 20260510181258 | 57 | 105 | 1.7 | 3.5 | 0.00 | 0.00 | 0.00 | 81 | 1019.9 |
| 20260510181226 | 57 | 105 | 1.7 | 3.5 | 0.00 | 0.00 | 0.00 | 81 | 1019.9 |
| 20260510180734 | 56 | 39 | 0.9 | 3.5 | 0.00 | 0.00 | 0.00 | 82 | 1019.9 |
| 20260510180226 | 56 | 145 | 0.9 | 2.6 | 0.00 | 0.00 | 0.00 | 82 | 1020.0 |
| 20260510175733 | 56 | 47 | 0.0 | 1.7 | 0.00 | 0.00 | 0.00 | 83 | 1019.9 |
| 20260510175221 | 55 | 277 | 0.9 | 3.5 | 0.00 | 0.00 | 0.00 | 83 | 1019.9 |
| 20260510174728 | 55 | 78 | 0.9 | 3.5 | 0.00 | 0.00 | 0.00 | 84 | 1020.0 |
| 20260510174236 | 55 | 16 | 1.7 | 3.5 | 0.00 | 0.00 | 0.00 | 84 | 1020.2 |
| 20260510173804 | 55 | 286 | 0.9 | 3.5 | 0.00 | 0.00 | 0.00 | 84 | 1020.2 |
| 20260510173240 | 56 | 278 | 0.9 | 2.6 | 0.00 | 0.00 | 0.00 | 83 | 1020.1 |
| 20260510172727 | 55 | 202 | 0.9 | 1.7 | 0.00 | 0.00 | 0.00 | 83 | 1019.9 |
| 20260510172235 | 55 | 209 | 0.0 | 1.7 | 0.00 | 0.00 | 0.00 | 84 | 1019.9 |
| 20260510171723 | 55 | 230 | 0.9 | 2.6 | 0.00 | 0.00 | 0.00 | 84 | 1019.9 |
| 20260510171231 | 55 | 301 | 0.9 | 4.3 | 0.00 | 0.00 | 0.00 | 84 | 1019.9 |
| 20260510170723 | 55 | 302 | 0.0 | 5.2 | 0.00 | 0.00 | 0.00 | 84 | 1019.9 |
| 20260510170230 | 55 | 234 | 1.7 | 5.2 | 0.00 | 0.00 | 0.00 | 84 | 1019.9 |
| 20260510165737 | 55 | 301 | 1.7 | 3.5 | 0.00 | 0.00 | 0.00 | 83 | 1019.9 |
| 20260510165225 | 55 | 264 | 1.7 | 3.5 | 0.00 | 0.00 | 0.00 | 83 | 1019.9 |
| 20260510164733 | 56 | 173 | 0.9 | 2.6 | 0.00 | 0.00 | 0.00 | 83 | 1019.7 |
| 20260510164240 | 56 | 171 | 0.0 | 3.5 | 0.00 | 0.00 | 0.00 | 83 | 1019.6 |
| 20260510163728 | 55 | 96 | 0.9 | 3.5 | 0.00 | 0.00 | 0.00 | 84 | 1019.3 |
| 20260510163256 | 55 | 109 | 0.0 | 1.7 | 0.00 | 0.00 | 0.00 | 84 | 1019.3 |
| 20260510163224 | 55 | 109 | 0.0 | 1.7 | 0.00 | 0.00 | 0.00 | 84 | 1019.3 |
| 20260510162810 | 55 | 159 | 0.9 | 2.6 | 0.00 | 0.00 | 0.00 | 84 | 1019.2 |
| 20260510162227 | 55 | 138 | 1.7 | 2.6 | 0.00 | 0.00 | 0.00 | 84 | 1019.0 |
| 20260510161735 | 54 | 69 | 0.0 | 3.5 | 0.00 | 0.00 | 0.00 | 85 | 1019.0 |
| 20260510161227 | 54 | 120 | 0.9 | 3.5 | 0.00 | 0.00 | 0.00 | 85 | 1019.2 |
| 20260510160734 | 54 | 298 | 0.0 | 2.6 | 0.00 | 0.00 | 0.00 | 86 | 1019.2 |
| 20260510160241 | 54 | 198 | 0.9 | 2.6 | 0.00 | 0.00 | 0.00 | 86 | 1019.1 |
| 20260510155728 | 54 | 255 | 1.7 | 2.6 | 0.00 | 0.00 | 0.00 | 86 | 1019.1 |
| 20260510155236 | 54 | 360 | 0.9 | 1.7 | 0.00 | 0.00 | 0.00 | 86 | 1018.8 |
| 20260510154724 | 54 | 284 | 0.9 | 3.5 | 0.00 | 0.00 | 0.00 | 86 | 1018.8 |
| 20260510154311 | 54 | 209 | 0.9 | 3.5 | 0.00 | 0.00 | 0.00 | 86 | 1019.0 |
| 20260510153808 | 54 | 226 | 0.9 | 2.6 | 0.00 | 0.00 | 0.00 | 86 | 1019.2 |
| 20260510153305 | 54 | 271 | 0.9 | 2.6 | 0.00 | 0.00 | 0.00 | 86 | 1018.9 |
| 20260510152740 | 54 | 288 | 0.9 | 1.7 | 0.00 | 0.00 | 0.00 | 87 | 1018.7 |
| 20260510152228 | 54 | 320 | 0.0 | 1.7 | 0.00 | 0.00 | 0.00 | 87 | 1018.6 |
| 20260510151756 | 54 | 315 | 0.0 | 1.7 | 0.00 | 0.00 | 0.00 | 87 | 1018.3 |
| 20260510151232 | 54 | 313 | 0.9 | 1.7 | 0.00 | 0.00 | 0.00 | 87 | 1018.5 |
| 20260510150740 | 53 | 355 | 0.0 | 1.7 | 0.00 | 0.00 | 0.00 | 88 | 1018.7 |
| 20260510150232 | 53 | 24 | 0.9 | 1.7 | 0.00 | 0.00 | 0.00 | 90 | 1018.5 |
| 20260510145738 | 52 | 341 | 0.0 | 0.9 | 0.00 | 0.00 | 0.00 | 90 | 1018.5 |
| 20260510145226 | 52 | 331 | 0.0 | 0.9 | 0.00 | 0.00 | 0.00 | 91 | 1018.7 |
| 20260510144734 | 51 | 323 | 0.0 | 1.7 | 0.00 | 0.00 | 0.00 | 91 | 1018.8 |
| 20260510144302 | 51 | 323 | 0.0 | 1.7 | 0.00 | 0.00 | 0.00 | 91 | 1018.9 |
| 20260510144230 | 51 | 323 | 0.0 | 1.7 | 0.00 | 0.00 | 0.00 | 91 | 1018.9 |
| 20260510143738 | 51 | 57 | 0.0 | 0.0 | 0.00 | 0.00 | 0.00 | 92 | 1018.9 |
| 20260510143226 | 51 | 277 | 0.0 | 0.0 | 0.00 | 0.00 | 0.00 | 93 | 1019.0 |
| 20260510142733 | 50 | 277 | 0.0 | 0.0 | 0.00 | 0.00 | 0.00 | 93 | 1018.9 |
| 20260510142221 | 50 | 277 | 0.0 | 0.0 | 0.00 | 0.00 | 0.00 | 93 | 1018.8 |
| 20260510141809 | 50 | 276 | 0.0 | 0.0 | 0.00 | 0.00 | 0.00 | 94 | 1018.6 |
| 20260510141225 | 49 | 277 | 0.0 | 0.0 | 0.00 | 0.00 | 0.00 | 94 | 1018.4 |
| 20260510140733 | 49 | 317 | 0.0 | 0.0 | 0.00 | 0.00 | 0.00 | 93 | 1018.1 |
| 20260510140224 | 48 | 68 | 0.0 | 0.0 | 0.00 | 0.00 | 0.00 | 93 | 1017.7 |
| 20260510135731 | 48 | 68 | 0.0 | 0.0 | 0.00 | 0.00 | 0.00 | 93 | 1017.7 |
| 20260510135239 | 48 | 50 | 0.0 | 0.0 | 0.00 | 0.00 | 0.00 | 94 | 1017.7 |
| 20260510134727 | 48 | 5 | 0.0 | 0.0 | 0.00 | 0.00 | 0.00 | 94 | 1017.9 |
| 20260510134235 | 47 | 5 | 0.0 | 0.0 | 0.00 | 0.00 | 0.00 | 94 | 1018.0 |
| 20260510133723 | 47 | 5 | 0.0 | 0.0 | 0.00 | 0.00 | 0.00 | 94 | 1018.1 |
| 20260510133231 | 47 | 5 | 0.0 | 0.0 | 0.00 | 0.00 | 0.00 | 94 | 1018.3 |
| 20260510132758 | 46 | 5 | 0.0 | 0.0 | 0.00 | 0.00 | 0.00 | 94 | 1018.4 |
| 20260510132726 | 46 | 5 | 0.0 | 0.0 | 0.00 | 0.00 | 0.00 | 94 | 1018.4 |
| 20260510132234 | 46 | 5 | 0.0 | 0.0 | 0.00 | 0.00 | 0.00 | 93 | 1018.5 |
| 20260510131722 | 46 | 5 | 0.0 | 0.0 | 0.00 | 0.00 | 0.00 | 93 | 1018.6 |
| 20260510131234 | 46 | 5 | 0.0 | 0.0 | 0.00 | 0.00 | 0.00 | 93 | 1018.6 |
| 20260510130722 | 46 | 5 | 0.0 | 0.0 | 0.00 | 0.00 | 0.00 | 93 | 1018.5 |
| 20260510130310 | 46 | 5 | 0.0 | 0.0 | 0.00 | 0.00 | 0.00 | 93 | 1018.5 |
| 20260510125805 | 46 | 309 | 0.0 | 0.0 | 0.00 | 0.00 | 0.00 | 93 | 1018.7 |
| 20260510125221 | 46 | 309 | 0.0 | 0.0 | 0.00 | 0.00 | 0.00 | 93 | 1018.7 |
| 20260510124729 | 46 | 309 | 0.0 | 0.0 | 0.00 | 0.00 | 0.00 | 93 | 1018.6 |
| 20260510124237 | 47 | 309 | 0.0 | 0.0 | 0.00 | 0.00 | 0.00 | 93 | 1018.5 |
| 20260510123725 | 47 | 309 | 0.0 | 0.0 | 0.00 | 0.00 | 0.00 | 93 | 1018.5 |
| 20260510123233 | 47 | 309 | 0.0 | 0.0 | 0.00 | 0.00 | 0.00 | 93 | 1018.6 |
| 20260510122740 | 47 | 309 | 0.0 | 0.0 | 0.00 | 0.00 | 0.00 | 93 | 1018.5 |
| 20260510122227 | 47 | 309 | 0.0 | 0.0 | 0.00 | 0.00 | 0.00 | 93 | 1018.4 |
| 20260510121755 | 47 | 309 | 0.0 | 0.0 | 0.00 | 0.00 | 0.00 | 93 | 1018.4 |
| 20260510121723 | 47 | 309 | 0.0 | 0.0 | 0.00 | 0.00 | 0.00 | 93 | 1018.4 |
| 20260510121311 | 47 | 309 | 0.0 | 0.0 | 0.00 | 0.00 | 0.00 | 93 | 1018.4 |
| 20260510121239 | 47 | 309 | 0.0 | 0.0 | 0.00 | 0.00 | 0.00 | 93 | 1018.4 |
| 20260510120807 | 47 | 309 | 0.0 | 0.0 | 0.00 | 0.00 | 0.00 | 93 | 1018.2 |
| 20260510120735 | 47 | 309 | 0.0 | 0.0 | 0.00 | 0.00 | 0.00 | 93 | 1018.2 |
| 20260510120303 | 47 | 309 | 0.0 | 0.0 | 0.00 | 0.00 | 0.00 | 93 | 1018.4 |
| 20260510120231 | 47 | 309 | 0.0 | 0.0 | 0.00 | 0.00 | 0.00 | 93 | 1018.4 |
| 20260510115738 | 47 | 309 | 0.0 | 0.0 | 0.00 | 0.00 | 0.00 | 92 | 1018.3 |
| 20260510115230 | 47 | 309 | 0.0 | 0.0 | 0.00 | 0.00 | 0.00 | 92 | 1018.2 |
| 20260510114738 | 47 | 309 | 0.0 | 0.0 | 0.00 | 0.00 | 0.00 | 91 | 1018.1 |
| 20260510114226 | 47 | 309 | 0.0 | 0.0 | 0.00 | 0.00 | 0.00 | 92 | 1018.3 |
| 20260510113755 | 47 | 309 | 0.0 | 0.0 | 0.00 | 0.00 | 0.00 | 92 | 1018.4 |
| 20260510113722 | 47 | 309 | 0.0 | 0.0 | 0.00 | 0.00 | 0.00 | 92 | 1018.4 |
| 20260510113230 | 48 | 309 | 0.0 | 0.0 | 0.00 | 0.00 | 0.00 | 92 | 1018.5 |
| 20260510112737 | 48 | 309 | 0.0 | 0.0 | 0.00 | 0.00 | 0.00 | 92 | 1018.5 |
| 20260510112225 | 48 | 309 | 0.0 | 0.0 | 0.00 | 0.00 | 0.00 | 93 | 1018.4 |
| 20260510111733 | 48 | 309 | 0.0 | 0.0 | 0.00 | 0.00 | 0.00 | 92 | 1018.4 |
| 20260510111240 | 48 | 309 | 0.0 | 0.0 | 0.00 | 0.00 | 0.00 | 92 | 1018.3 |
| 20260510110728 | 48 | 309 | 0.0 | 0.0 | 0.00 | 0.00 | 0.00 | 92 | 1018.2 |
| 20260510110236 | 48 | 309 | 0.0 | 0.0 | 0.00 | 0.00 | 0.00 | 92 | 1018.2 |
| 20260510105727 | 48 | 309 | 0.0 | 0.0 | 0.00 | 0.00 | 0.00 | 92 | 1018.0 |
| 20260510105255 | 48 | 309 | 0.0 | 0.0 | 0.00 | 0.00 | 0.00 | 92 | 1018.0 |
| 20260510104732 | 48 | 309 | 0.0 | 0.0 | 0.00 | 0.00 | 0.00 | 92 | 1018.0 |
| 20260510104300 | 48 | 309 | 0.0 | 0.0 | 0.00 | 0.00 | 0.00 | 92 | 1017.9 |
| 20260510103737 | 48 | 309 | 0.0 | 0.0 | 0.00 | 0.00 | 0.00 | 92 | 1018.1 |
| 20260510103225 | 48 | 309 | 0.0 | 0.0 | 0.00 | 0.00 | 0.00 | 91 | 1017.9 |
| 20260510102812 | 48 | 309 | 0.0 | 0.0 | 0.00 | 0.00 | 0.00 | 91 | 1017.8 |
| 20260510102740 | 48 | 309 | 0.0 | 0.0 | 0.00 | 0.00 | 0.00 | 91 | 1017.8 |
| 20260510102308 | 49 | 309 | 0.0 | 0.0 | 0.00 | 0.00 | 0.00 | 91 | 1017.8 |
| 20260510101725 | 49 | 309 | 0.0 | 0.0 | 0.00 | 0.00 | 0.00 | 92 | 1017.7 |
| 20260510101232 | 49 | 309 | 0.0 | 0.0 | 0.00 | 0.00 | 0.00 | 92 | 1017.8 |
| 20260510100740 | 49 | 309 | 0.0 | 0.0 | 0.00 | 0.00 | 0.00 | 92 | 1017.7 |
| 20260510100228 | 49 | 309 | 0.0 | 0.0 | 0.00 | 0.00 | 0.00 | 91 | 1017.7 |
| 20260510095735 | 49 | 309 | 0.0 | 0.0 | 0.00 | 0.00 | 0.00 | 92 | 1017.6 |
| 20260510095227 | 49 | 309 | 0.0 | 0.0 | 0.00 | 0.00 | 0.00 | 91 | 1017.5 |
| 20260510094755 | 49 | 309 | 0.0 | 0.0 | 0.00 | 0.00 | 0.00 | 91 | 1017.5 |
| 20260510094231 | 49 | 309 | 0.0 | 0.0 | 0.00 | 0.00 | 0.00 | 91 | 1017.4 |
| 20260510093738 | 49 | 309 | 0.0 | 0.0 | 0.00 | 0.00 | 0.00 | 90 | 1017.5 |
| 20260510093226 | 50 | 309 | 0.0 | 0.0 | 0.00 | 0.00 | 0.00 | 90 | 1017.4 |
| 20260510092733 | 50 | 309 | 0.0 | 0.0 | 0.00 | 0.00 | 0.00 | 90 | 1017.3 |
| 20260510092301 | 50 | 309 | 0.0 | 0.0 | 0.00 | 0.00 | 0.00 | 90 | 1017.2 |
| 20260510092229 | 50 | 309 | 0.0 | 0.0 | 0.00 | 0.00 | 0.00 | 90 | 1017.2 |
| 20260510091737 | 50 | 309 | 0.0 | 0.0 | 0.00 | 0.00 | 0.00 | 90 | 1017.3 |
| 20260510091305 | 50 | 309 | 0.0 | 0.0 | 0.00 | 0.00 | 0.00 | 90 | 1017.2 |
| 20260510090721 | 50 | 309 | 0.0 | 0.0 | 0.00 | 0.00 | 0.00 | 90 | 1017.3 |
| 20260510090229 | 50 | 309 | 0.0 | 0.0 | 0.00 | 0.00 | 0.00 | 90 | 1017.2 |
| 20260510085736 | 50 | 309 | 0.0 | 0.0 | 0.00 | 0.00 | 0.00 | 90 | 1017.3 |
| 20260510085224 | 50 | 309 | 0.0 | 0.0 | 0.00 | 0.00 | 0.00 | 89 | 1017.2 |
| 20260510084736 | 51 | 309 | 0.0 | 0.0 | 0.00 | 0.00 | 0.00 | 90 | 1017.1 |
| 20260510084224 | 51 | 309 | 0.0 | 0.0 | 0.00 | 0.00 | 0.00 | 89 | 1017.0 |
| 20260510083812 | 51 | 309 | 0.0 | 0.0 | 0.00 | 0.00 | 0.00 | 89 | 1017.0 |
| 20260510083740 | 51 | 309 | 0.0 | 0.0 | 0.00 | 0.00 | 0.00 | 89 | 1017.0 |
| 20260510083308 | 51 | 309 | 0.0 | 0.0 | 0.00 | 0.00 | 0.00 | 89 | 1017.0 |
| 20260510082723 | 51 | 309 | 0.0 | 0.0 | 0.00 | 0.00 | 0.00 | 89 | 1017.0 |
| 20260510082311 | 51 | 331 | 0.0 | 0.0 | 0.00 | 0.00 | 0.00 | 89 | 1017.1 |
| 20260510081728 | 51 | 331 | 0.0 | 0.0 | 0.00 | 0.00 | 0.00 | 88 | 1017.1 |
| 20260510081236 | 51 | 331 | 0.0 | 0.0 | 0.00 | 0.00 | 0.00 | 88 | 1017.0 |
| 20260510080724 | 51 | 331 | 0.0 | 0.0 | 0.00 | 0.00 | 0.00 | 88 | 1017.1 |
| 20260510080312 | 52 | 331 | 0.0 | 0.0 | 0.00 | 0.00 | 0.00 | 88 | 1017.2 |
| 20260510075807 | 52 | 331 | 0.0 | 0.0 | 0.00 | 0.00 | 0.00 | 88 | 1017.3 |
| 20260510075224 | 52 | 331 | 0.0 | 0.0 | 0.00 | 0.00 | 0.00 | 88 | 1017.3 |
| 20260510074732 | 52 | 331 | 0.0 | 0.0 | 0.00 | 0.00 | 0.00 | 88 | 1017.0 |
| 20260510074240 | 52 | 351 | 0.0 | 0.0 | 0.00 | 0.00 | 0.00 | 88 | 1017.0 |
| 20260510073728 | 52 | 351 | 0.0 | 0.0 | 0.00 | 0.00 | 0.00 | 87 | 1017.0 |
| 20260510073255 | 52 | 351 | 0.0 | 0.0 | 0.00 | 0.00 | 0.00 | 87 | 1017.2 |
| 20260510072735 | 52 | 351 | 0.0 | 0.0 | 0.00 | 0.00 | 0.00 | 87 | 1017.2 |
| 20260510072305 | 53 | 351 | 0.0 | 0.0 | 0.00 | 0.00 | 0.00 | 86 | 1017.1 |
| 20260510072231 | 53 | 351 | 0.0 | 0.0 | 0.00 | 0.00 | 0.00 | 86 | 1017.1 |
| 20260510071739 | 53 | 355 | 0.0 | 0.0 | 0.00 | 0.00 | 0.00 | 86 | 1017.2 |
| 20260510071227 | 53 | 351 | 0.0 | 0.0 | 0.00 | 0.00 | 0.00 | 86 | 1017.2 |
| 20260510070735 | 53 | 351 | 0.0 | 0.0 | 0.00 | 0.00 | 0.00 | 85 | 1017.2 |
| 20260510070223 | 53 | 351 | 0.0 | 0.0 | 0.00 | 0.00 | 0.00 | 85 | 1017.2 |
| 20260510065730 | 53 | 351 | 0.0 | 0.0 | 0.00 | 0.00 | 0.00 | 84 | 1017.3 |
| 20260510065238 | 54 | 351 | 0.0 | 0.0 | 0.00 | 0.00 | 0.00 | 84 | 1017.2 |
| 20260510064726 | 54 | 351 | 0.0 | 0.0 | 0.00 | 0.00 | 0.00 | 83 | 1017.3 |
| 20260510064254 | 54 | 355 | 0.0 | 0.0 | 0.00 | 0.00 | 0.00 | 83 | 1017.2 |
| 20260510063730 | 54 | 351 | 0.0 | 0.0 | 0.00 | 0.00 | 0.00 | 82 | 1017.4 |
| 20260510063222 | 55 | 351 | 0.0 | 0.0 | 0.00 | 0.00 | 0.00 | 82 | 1017.5 |
| 20260510062729 | 55 | 351 | 0.0 | 0.0 | 0.00 | 0.00 | 0.00 | 82 | 1017.5 |
| 20260510062237 | 55 | 319 | 0.0 | 0.0 | 0.00 | 0.00 | 0.00 | 82 | 1017.5 |
| 20260510061725 | 55 | 319 | 0.0 | 0.0 | 0.00 | 0.00 | 0.00 | 81 | 1017.5 |
| 20260510061253 | 55 | 319 | 0.0 | 0.0 | 0.00 | 0.00 | 0.00 | 81 | 1017.4 |
| 20260510060730 | 56 | 319 | 0.0 | 0.0 | 0.00 | 0.00 | 0.00 | 81 | 1017.4 |
| 20260510060237 | 56 | 319 | 0.0 | 0.0 | 0.00 | 0.00 | 0.00 | 80 | 1017.5 |
| 20260510055804 | 56 | 319 | 0.0 | 0.0 | 0.00 | 0.00 | 0.00 | 80 | 1017.5 |
| 20260510055732 | 56 | 319 | 0.0 | 0.0 | 0.00 | 0.00 | 0.00 | 80 | 1017.5 |
| 20260510055240 | 56 | 319 | 0.0 | 0.0 | 0.00 | 0.00 | 0.00 | 80 | 1017.4 |
| 20260510054807 | 56 | 319 | 0.0 | 0.0 | 0.00 | 0.00 | 0.00 | 80 | 1017.3 |
| 20260510054303 | 56 | 319 | 0.0 | 0.0 | 0.00 | 0.00 | 0.00 | 79 | 1017.3 |
| 20260510053740 | 56 | 319 | 0.0 | 0.0 | 0.00 | 0.00 | 0.00 | 79 | 1017.3 |
| 20260510053228 | 57 | 319 | 0.0 | 0.0 | 0.00 | 0.00 | 0.00 | 78 | 1017.2 |
| 20260510052735 | 57 | 319 | 0.0 | 0.0 | 0.00 | 0.00 | 0.00 | 77 | 1017.2 |
| 20260510052227 | 57 | 319 | 0.0 | 0.0 | 0.00 | 0.00 | 0.00 | 77 | 1017.2 |
| 20260510051735 | 57 | 319 | 0.0 | 0.0 | 0.00 | 0.00 | 0.00 | 76 | 1017.1 |
| 20260510051223 | 58 | 319 | 0.0 | 0.0 | 0.00 | 0.00 | 0.00 | 76 | 1017.2 |
| 20260510050811 | 58 | 319 | 0.0 | 0.0 | 0.00 | 0.00 | 0.00 | 75 | 1017.0 |
| 20260510050227 | 58 | 319 | 0.0 | 0.0 | 0.00 | 0.00 | 0.00 | 75 | 1017.0 |
| 20260510045754 | 58 | 319 | 0.0 | 0.0 | 0.00 | 0.00 | 0.00 | 74 | 1017.2 |
| 20260510045230 | 59 | 319 | 0.0 | 0.0 | 0.00 | 0.00 | 0.00 | 74 | 1017.1 |
| 20260510044738 | 59 | 319 | 0.0 | 0.0 | 0.00 | 0.00 | 0.00 | 73 | 1017.1 |
| 20260510044306 | 59 | 319 | 0.0 | 0.0 | 0.00 | 0.00 | 0.00 | 72 | 1017.0 |
| 20260510044234 | 59 | 319 | 0.0 | 0.0 | 0.00 | 0.00 | 0.00 | 72 | 1017.0 |
| 20260510043722 | 59 | 319 | 0.0 | 0.0 | 0.00 | 0.00 | 0.00 | 72 | 1017.1 |
| 20260510043230 | 59 | 319 | 0.0 | 0.0 | 0.00 | 0.00 | 0.00 | 71 | 1017.2 |
| 20260510042757 | 60 | 319 | 0.0 | 0.0 | 0.00 | 0.00 | 0.00 | 71 | 1017.2 |
| 20260510042725 | 60 | 319 | 0.0 | 0.0 | 0.00 | 0.00 | 0.00 | 71 | 1017.2 |
| 20260510042252 | 60 | 319 | 0.0 | 0.0 | 0.00 | 0.00 | 0.00 | 70 | 1017.1 |
| 20260510042221 | 60 | 319 | 0.0 | 0.0 | 0.00 | 0.00 | 0.00 | 70 | 1017.1 |
| 20260510041729 | 60 | 319 | 0.0 | 0.0 | 0.00 | 0.00 | 0.00 | 70 | 1017.1 |
| 20260510041237 | 61 | 319 | 0.0 | 0.0 | 0.00 | 0.00 | 0.00 | 69 | 1017.0 |
| 20260510040728 | 61 | 319 | 0.0 | 0.0 | 0.00 | 0.00 | 0.00 | 68 | 1017.0 |
| 20260510040305 | 61 | 319 | 0.0 | 0.0 | 0.00 | 0.00 | 0.00 | 68 | 1016.8 |
| 20260510035724 | 61 | 319 | 0.0 | 0.0 | 0.00 | 0.00 | 0.00 | 67 | 1016.9 |
| 20260510035232 | 62 | 319 | 0.0 | 0.0 | 0.00 | 0.00 | 0.00 | 66 | 1016.8 |
| 20260510034740 | 62 | 319 | 0.0 | 0.0 | 0.00 | 0.00 | 0.00 | 66 | 1016.9 |
| 20260510034228 | 62 | 319 | 0.0 | 0.0 | 0.00 | 0.00 | 0.00 | 65 | 1016.9 |
| 20260510033755 | 63 | 319 | 0.0 | 0.0 | 0.00 | 0.00 | 0.00 | 64 | 1016.9 |
| 20260510033231 | 63 | 319 | 0.0 | 0.0 | 0.00 | 0.00 | 0.00 | 64 | 1017.0 |
| 20260510032738 | 63 | 319 | 0.0 | 0.0 | 0.00 | 0.00 | 0.00 | 64 | 1017.1 |
| 20260510032306 | 64 | 319 | 0.0 | 0.0 | 0.00 | 0.00 | 0.00 | 63 | 1017.1 |
| 20260510031802 | 64 | 319 | 0.0 | 0.0 | 0.00 | 0.00 | 0.00 | 63 | 1017.2 |
| 20260510031730 | 64 | 319 | 0.0 | 0.0 | 0.00 | 0.00 | 0.00 | 63 | 1017.2 |
| 20260510031233 | 64 | 319 | 0.0 | 0.0 | 0.00 | 0.00 | 0.00 | 62 | 1017.3 |
| 20260510030721 | 65 | 319 | 0.0 | 0.0 | 0.00 | 0.00 | 0.00 | 60 | 1017.3 |
| 20260510030229 | 65 | 319 | 0.0 | 0.0 | 0.00 | 0.00 | 0.00 | 58 | 1017.1 |
| 20260510025736 | 66 | 319 | 0.0 | 0.0 | 0.00 | 0.00 | 0.00 | 59 | 1017.3 |
| 20260510025306 | 66 | 319 | 0.0 | 0.0 | 0.00 | 0.00 | 0.00 | 58 | 1017.3 |
| 20260510025232 | 66 | 319 | 0.0 | 0.0 | 0.00 | 0.00 | 0.00 | 58 | 1017.3 |
| 20260510024724 | 66 | 319 | 0.0 | 0.0 | 0.00 | 0.00 | 0.00 | 56 | 1017.4 |
| 20260510024232 | 67 | 319 | 0.0 | 0.0 | 0.00 | 0.00 | 0.00 | 56 | 1017.5 |
| 20260510023800 | 67 | 319 | 0.0 | 0.0 | 0.00 | 0.00 | 0.00 | 55 | 1017.5 |
| 20260510023728 | 67 | 319 | 0.0 | 0.0 | 0.00 | 0.00 | 0.00 | 55 | 1017.5 |
| 20260510023255 | 67 | 321 | 0.0 | 0.9 | 0.00 | 0.00 | 0.00 | 55 | 1017.4 |
| 20260510022731 | 67 | 341 | 0.0 | 1.7 | 0.00 | 0.00 | 0.00 | 54 | 1017.4 |
| 20260510022239 | 68 | 5 | 0.0 | 2.6 | 0.00 | 0.00 | 0.00 | 54 | 1017.4 |
| 20260510021727 | 68 | 57 | 0.9 | 2.6 | 0.00 | 0.00 | 0.00 | 53 | 1017.4 |
| 20260510021235 | 68 | 355 | 0.0 | 1.7 | 0.00 | 0.00 | 0.00 | 53 | 1017.5 |
| 20260510020723 | 68 | 355 | 0.0 | 2.6 | 0.00 | 0.00 | 0.00 | 53 | 1017.5 |
| 20260510020231 | 68 | 291 | 0.9 | 2.6 | 0.00 | 0.00 | 0.00 | 53 | 1017.6 |
| 20260510015738 | 68 | 32 | 0.0 | 1.7 | 0.00 | 0.00 | 0.00 | 52 | 1017.8 |
| 20260510015230 | 68 | 325 | 0.9 | 1.7 | 0.00 | 0.00 | 0.00 | 52 | 1018.0 |
| 20260510014758 | 68 | 344 | 0.0 | 2.6 | 0.00 | 0.00 | 0.00 | 53 | 1018.0 |
| 20260510014234 | 68 | 295 | 0.9 | 2.6 | 0.00 | 0.00 | 0.00 | 52 | 1018.0 |
| 20260510013802 | 68 | 302 | 0.9 | 2.6 | 0.00 | 0.00 | 0.00 | 52 | 1018.2 |
| 20260510013730 | 68 | 302 | 0.9 | 2.6 | 0.00 | 0.00 | 0.00 | 52 | 1018.2 |
| 20260510013258 | 68 | 9 | 0.9 | 2.6 | 0.00 | 0.00 | 0.00 | 52 | 1018.3 |
| 20260510012734 | 68 | 299 | 0.9 | 3.5 | 0.00 | 0.00 | 0.00 | 52 | 1018.1 |
| 20260510012221 | 69 | 350 | 1.7 | 3.5 | 0.00 | 0.00 | 0.00 | 51 | 1018.2 |
| 20260510011729 | 68 | 329 | 1.7 | 5.2 | 0.00 | 0.00 | 0.00 | 51 | 1018.4 |
| 20260510011257 | 68 | 313 | 1.7 | 5.2 | 0.00 | 0.00 | 0.00 | 51 | 1018.4 |
| 20260510010733 | 68 | 340 | 0.9 | 2.6 | 0.00 | 0.00 | 0.00 | 52 | 1018.3 |
| 20260510010241 | 68 | 26 | 0.9 | 2.6 | 0.00 | 0.00 | 0.00 | 52 | 1018.4 |
| 20260510005808 | 68 | 323 | 1.7 | 2.6 | 0.00 | 0.00 | 0.00 | 52 | 1018.5 |
| 20260510005736 | 68 | 323 | 1.7 | 2.6 | 0.00 | 0.00 | 0.00 | 52 | 1018.5 |
| 20260510005225 | 68 | 331 | 0.9 | 3.5 | 0.00 | 0.00 | 0.00 | 51 | 1018.5 |
| 20260510004812 | 68 | 259 | 1.7 | 4.3 | 0.00 | 0.00 | 0.00 | 52 | 1018.6 |
| 20260510004740 | 68 | 259 | 1.7 | 4.3 | 0.00 | 0.00 | 0.00 | 52 | 1018.6 |
| 20260510004228 | 68 | 276 | 2.6 | 5.2 | 0.00 | 0.00 | 0.00 | 50 | 1018.6 |
| 20260510003756 | 68 | 304 | 0.9 | 5.2 | 0.00 | 0.00 | 0.00 | 52 | 1018.5 |
| 20260510003724 | 68 | 304 | 0.9 | 5.2 | 0.00 | 0.00 | 0.00 | 52 | 1018.5 |
| 20260510003232 | 69 | 360 | 0.9 | 2.6 | 0.00 | 0.00 | 0.00 | 51 | 1018.5 |
| 20260510002723 | 69 | 14 | 0.0 | 3.5 | 0.00 | 0.00 | 0.00 | 52 | 1018.6 |
| 20260510002231 | 68 | 281 | 0.9 | 3.5 | 0.00 | 0.00 | 0.00 | 52 | 1018.7 |
| 20260510001759 | 68 | 335 | 1.7 | 3.5 | 0.00 | 0.00 | 0.00 | 51 | 1018.7 |
| 20260510001256 | 68 | 21 | 0.9 | 3.5 | 0.00 | 0.00 | 0.00 | 51 | 1018.9 |
| 20260510001224 | 68 | 21 | 0.9 | 3.5 | 0.00 | 0.00 | 0.00 | 51 | 1018.9 |
| 20260510000812 | 69 | 329 | 0.9 | 4.3 | 0.00 | 0.00 | 0.00 | 50 | 1018.9 |
| 20260510000740 | 69 | 329 | 0.9 | 4.3 | 0.00 | 0.00 | 0.00 | 50 | 1018.9 |
| 20260510000228 | 69 | 291 | 1.7 | 4.3 | 0.00 | 0.00 | 0.00 | 50 | 1019.0 |
| 20260509235735 | 69 | 13 | 0.9 | 4.3 | 0.00 | 0.00 | 0.00 | 49 | 1019.0 |
| 20260509235306 | 69 | 331 | 0.9 | 3.5 | 0.00 | 0.00 | 0.00 | 50 | 1019.1 |
| 20260509234759 | 69 | 24 | 1.7 | 3.5 | 0.00 | 0.00 | 0.00 | 51 | 1019.2 |
| 20260509234727 | 69 | 24 | 1.7 | 3.5 | 0.00 | 0.00 | 0.00 | 51 | 1019.2 |
| 20260509234235 | 69 | 55 | 1.7 | 3.5 | 0.00 | 0.00 | 0.00 | 50 | 1019.3 |
| 20260509233803 | 69 | 284 | 1.7 | 3.5 | 0.00 | 0.00 | 0.00 | 49 | 1019.4 |
| 20260509233239 | 69 | 11 | 1.7 | 3.5 | 0.00 | 0.00 | 0.00 | 49 | 1019.1 |
| 20260509232725 | 69 | 66 | 0.9 | 3.5 | 0.00 | 0.00 | 0.00 | 50 | 1019.3 |
| 20260509232233 | 68 | 280 | 1.7 | 5.2 | 0.00 | 0.00 | 0.00 | 49 | 1019.4 |
| 20260509231721 | 68 | 236 | 2.6 | 6.1 | 0.00 | 0.00 | 0.00 | 49 | 1019.4 |
| 20260509231229 | 68 | 290 | 2.6 | 6.1 | 0.00 | 0.00 | 0.00 | 49 | 1019.4 |
| 20260509230736 | 68 | 38 | 2.6 | 9.6 | 0.00 | 0.00 | 0.00 | 49 | 1019.6 |
| 20260509230228 | 69 | 234 | 1.7 | 7.0 | 0.00 | 0.00 | 0.00 | 49 | 1019.7 |
| 20260509225735 | 69 | 334 | 0.9 | 5.2 | 0.00 | 0.00 | 0.00 | 49 | 1019.7 |
| 20260509225223 | 69 | 270 | 0.9 | 7.0 | 0.00 | 0.00 | 0.00 | 50 | 1020.0 |
| 20260509224731 | 69 | 259 | 0.9 | 7.0 | 0.00 | 0.00 | 0.00 | 50 | 1020.1 |
| 20260509224259 | 69 | 360 | 1.7 | 4.3 | 0.00 | 0.00 | 0.00 | 50 | 1020.0 |
| 20260509223734 | 69 | 327 | 1.7 | 4.3 | 0.00 | 0.00 | 0.00 | 50 | 1019.9 |
| 20260509223222 | 69 | 305 | 1.7 | 5.2 | 0.00 | 0.00 | 0.00 | 50 | 1020.1 |
| 20260509222729 | 68 | 336 | 1.7 | 7.0 | 0.00 | 0.00 | 0.00 | 51 | 1020.1 |
| 20260509222237 | 68 | 233 | 2.6 | 7.0 | 0.00 | 0.00 | 0.00 | 51 | 1020.1 |
| 20260509221805 | 68 | 265 | 1.7 | 7.0 | 0.00 | 0.00 | 0.00 | 52 | 1020.2 |
| 20260509221733 | 68 | 265 | 1.7 | 7.0 | 0.00 | 0.00 | 0.00 | 52 | 1020.2 |
| 20260509221221 | 68 | 279 | 3.5 | 7.0 | 0.00 | 0.00 | 0.00 | 52 | 1020.2 |
| 20260509220733 | 68 | 350 | 1.7 | 8.7 | 0.00 | 0.00 | 0.00 | 52 | 1020.1 |
| 20260509220241 | 68 | 348 | 3.5 | 8.7 | 0.00 | 0.00 | 0.00 | 51 | 1020.3 |
| 20260509215728 | 68 | 240 | 1.7 | 6.1 | 0.00 | 0.00 | 0.00 | 53 | 1020.3 |
| 20260509215256 | 68 | 236 | 1.7 | 4.3 | 0.00 | 0.00 | 0.00 | 52 | 1020.2 |
| 20260509215224 | 68 | 236 | 1.7 | 4.3 | 0.00 | 0.00 | 0.00 | 52 | 1020.2 |
| 20260509214732 | 69 | 300 | 2.6 | 4.3 | 0.00 | 0.00 | 0.00 | 52 | 1020.2 |
| 20260509214240 | 69 | 326 | 1.7 | 4.3 | 0.00 | 0.00 | 0.00 | 50 | 1020.3 |
| 20260509213728 | 69 | 9 | 1.7 | 4.3 | 0.00 | 0.00 | 0.00 | 51 | 1020.3 |
| 20260509213236 | 68 | 342 | 1.7 | 5.2 | 0.00 | 0.00 | 0.00 | 53 | 1020.3 |
| 20260509212723 | 68 | 265 | 1.7 | 5.2 | 0.00 | 0.00 | 0.00 | 51 | 1020.4 |
| 20260509212230 | 68 | 255 | 1.7 | 4.3 | 0.00 | 0.00 | 0.00 | 51 | 1020.6 |
| 20260509211722 | 68 | 228 | 0.9 | 6.1 | 0.00 | 0.00 | 0.00 | 51 | 1020.6 |